Location: Newark
(35.2672°N, 80.7344°W)
Time: 13:09:56
(UTC+00:00)

Vanguard 2 Rocket - Pass Details

Date: 18 January 2020
Orbit: 553 x 3327 km, 32.9° (Epoch: 24 February)

Event Time Altitude Azimuth Distance (km) Brightness Sun altitude
Rises 18:34:41 0° 279° (W) 5,439 11.0 32.3°
Reaches altitude 10° 18:38:11 10° 271° (W) 4,786 10.9 32.1°
Maximum altitude 18:50:56 37° 212° (SSW) 3,981 12.6 31.2°
Drops below altitude 10° 19:07:56 10° 154° (SSE) 6,277 11.8 29.9°
Sets 19:13:31 0° 147° (SSE) 7,264 11.9 29.4°
